When you browse on this site, cookies collect data to enhance your experience and personalize the content and advertising you see.
Visit our Privacy Policy to learn more. By continuing to use the site, you agree to this use of cookies and data.

Hourly Weather Velikaya Novoselka

Today, 13 August, Thursday

Time Temperature Precipitation Wind Pressure Humidity
00:00 +18°C° 0 mm 3 mps 749 mmHg 67%
01:00 +17°C° 0 mm 3 mps 749 mmHg 69%
02:00 +16°C° 0 mm 3 mps 749 mmHg 69%
03:00 +16°C° 0 mm 3 mps 749 mmHg 72%
04:00 +14°C° 0 mm 3 mps 750 mmHg 75%
05:00 +13°C° 0 mm 3 mps 750 mmHg 78%
06:00 +16°C° 0 mm 3 mps 750 mmHg 71%
07:00 +18°C° 0 mm 4 mps 750 mmHg 64%
08:00 +20°C° 0 mm 4 mps 750 mmHg 54%
09:00 +21°C° 0 mm 4 mps 750 mmHg 50%
10:00 +22°C° 0 mm 4 mps 750 mmHg 45%
11:00 +25°C° 0 mm 4 mps 750 mmHg 40%
12:00 +25°C° 0 mm 5 mps 750 mmHg 40%
13:00 +25°C° 0 mm 5 mps 750 mmHg 39%
14:00 +25°C° 0 mm 5 mps 750 mmHg 38%
15:00 +25°C° 0 mm 5 mps 750 mmHg 40%
16:00 +23°C° 0 mm 5 mps 750 mmHg 41%
17:00 +23°C° 0 mm 5 mps 750 mmHg 42%
18:00 +21°C° 0 mm 4 mps 750 mmHg 48%
19:00 +20°C° 0 mm 3 mps 750 mmHg 53%
20:00 +18°C° 0 mm 3 mps 750 mmHg 58%
21:00 +17°C° 0 mm 2 mps 750 mmHg 61%
22:00 +17°C° 0 mm 2 mps 750 mmHg 63%
23:00 +16°C° 0 mm 1 mps 751 mmHg 66%

Tomorrow, 14 August, Friday

Time Temperature Precipitation Wind Pressure Humidity
00:00 +15°C° 0 mm 1 mps 751 mmHg 67%
01:00 +15°C° 0 mm 1 mps 750 mmHg 67%
02:00 +15°C° 0 mm 1 mps 750 mmHg 68%
03:00 +15°C° 0 mm 1 mps 751 mmHg 68%
04:00 +15°C° 0 mm 1 mps 751 mmHg 68%
05:00 +15°C° 0 mm 1 mps 751 mmHg 68%
06:00 +17°C° 0 mm 2 mps 751 mmHg 63%
07:00 +18°C° 0 mm 2 mps 751 mmHg 59%
08:00 +20°C° 0 mm 2 mps 751 mmHg 54%
09:00 +20°C° 0 mm 3 mps 751 mmHg 51%
10:00 +21°C° 0 mm 3 mps 751 mmHg 47%
11:00 +22°C° 0 mm 4 mps 751 mmHg 43%
12:00 +22°C° 0 mm 4 mps 751 mmHg 43%
13:00 +22°C° 0 mm 4 mps 751 mmHg 42%
14:00 +22°C° 0 mm 4 mps 751 mmHg 41%
15:00 +22°C° 0 mm 4 mps 751 mmHg 41%
16:00 +22°C° 0 mm 4 mps 751 mmHg 40%
17:00 +22°C° 0 mm 4 mps 751 mmHg 39%
18:00 +20°C° 0 mm 4 mps 751 mmHg 44%
19:00 +19°C° 0 mm 3 mps 751 mmHg 50%
20:00 +17°C° 0 mm 3 mps 751 mmHg 55%
21:00 +16°C° 0 mm 3 mps 751 mmHg 57%
22:00 +16°C° 0 mm 3 mps 751 mmHg 60%
23:00 +15°C° 0 mm 2 mps 752 mmHg 62%

Day after tomorrow, 15 August, Saturday

Time Temperature Precipitation Wind Pressure Humidity
00:00 +14°C° 0 mm 2 mps 752 mmHg 68%
01:00 +14°C° 0 mm 2 mps 752 mmHg 74%
02:00 +13°C° 0 mm 2 mps 752 mmHg 81%
03:00 +13°C° 0 mm 2 mps 752 mmHg 84%
04:00 +12°C° 0 mm 2 mps 752 mmHg 88%
05:00 +12°C° 0 mm 2 mps 752 mmHg 91%
06:00 +13°C° 0 mm 3 mps 752 mmHg 80%
07:00 +17°C° 0 mm 3 mps 752 mmHg 68%
08:00 +19°C° 0 mm 4 mps 753 mmHg 57%
09:00 +20°C° 0 mm 4 mps 753 mmHg 50%
10:00 +21°C° 0 mm 4 mps 753 mmHg 43%
11:00 +23°C° 0 mm 4 mps 753 mmHg 37%
12:00 +23°C° 0 mm 4 mps 753 mmHg 35%
13:00 +25°C° 0 mm 4 mps 753 mmHg 34%
14:00 +25°C° 0 mm 4 mps 753 mmHg 32%
15:00 +25°C° 0 mm 4 mps 752 mmHg 33%
16:00 +23°C° 0 mm 4 mps 752 mmHg 35%
17:00 +23°C° 0 mm 5 mps 752 mmHg 36%
18:00 +21°C° 0 mm 4 mps 752 mmHg 40%
19:00 +19°C° 0 mm 3 mps 752 mmHg 44%
20:00 +17°C° 0 mm 3 mps 753 mmHg 48%
21:00 +16°C° 0 mm 2 mps 753 mmHg 51%
22:00 +16°C° 0 mm 2 mps 753 mmHg 53%
23:00 +15°C° 0 mm 2 mps 753 mmHg 56%

16 August, Sunday

Time Temperature Precipitation Wind Pressure Humidity
00:00 +14°C° 0 mm 2 mps 753 mmHg 57%
01:00 +14°C° 0 mm 2 mps 753 mmHg 59%
02:00 +14°C° 0 mm 1 mps 753 mmHg 60%
03:00 +14°C° 0 mm 1 mps 753 mmHg 62%
04:00 +13°C° 0 mm 2 mps 753 mmHg 64%
05:00 +13°C° 0 mm 2 mps 753 mmHg 66%
06:00 +16°C° 0 mm 2 mps 753 mmHg 59%
07:00 +18°C° 0 mm 2 mps 753 mmHg 53%
08:00 +20°C° 0 mm 2 mps 753 mmHg 47%
09:00 +21°C° 0 mm 2 mps 753 mmHg 43%
10:00 +24°C° 0 mm 3 mps 753 mmHg 38%
11:00 +25°C° 0 mm 3 mps 753 mmHg 34%
12:00 +26°C° 0 mm 3 mps 753 mmHg 33%
13:00 +26°C° 0 mm 3 mps 753 mmHg 31%
14:00 +27°C° 0 mm 3 mps 753 mmHg 30%
15:00 +27°C° 0 mm 3 mps 753 mmHg 32%
16:00 +27°C° 0 mm 3 mps 753 mmHg 33%
17:00 +26°C° 0 mm 3 mps 752 mmHg 35%
18:00 +24°C° 0 mm 3 mps 753 mmHg 40%
19:00 +21°C° 0 mm 2 mps 753 mmHg 45%
20:00 +20°C° 0 mm 1 mps 753 mmHg 50%
21:00 +20°C° 0 mm 1 mps 753 mmHg 52%
22:00 +19°C° 0 mm 1 mps 753 mmHg 54%
23:00 +17°C° 0 mm 0 mps 753 mmHg 56%

17 August, Monday

Time Temperature Precipitation Wind Pressure Humidity
00:00 +18°C° 0 mm 1 mps 753 mmHg 57%
01:00 +18°C° 0 mm 1 mps 753 mmHg 58%
02:00 +18°C° 0 mm 1 mps 753 mmHg 60%
03:00 +18°C° 0 mm 1 mps 753 mmHg 62%
04:00 +16°C° 0 mm 1 mps 753 mmHg 64%
05:00 +16°C° 0 mm 1 mps 753 mmHg 66%
06:00 +18°C° 0 mm 2 mps 753 mmHg 61%
07:00 +21°C° 0 mm 2 mps 753 mmHg 57%
08:00 +24°C° 0 mm 2 mps 753 mmHg 52%
09:00 +25°C° 0 mm 2 mps 753 mmHg 48%
10:00 +27°C° 0 mm 2 mps 753 mmHg 44%
11:00 +28°C° 0 mm 3 mps 753 mmHg 40%
12:00 +29°C° 0 mm 3 mps 752 mmHg 38%
13:00 +30°C° 0 mm 3 mps 752 mmHg 36%
14:00 +30°C° 0 mm 2 mps 752 mmHg 34%
15:00 +30°C° 0 mm 2 mps 751 mmHg 35%
16:00 +30°C° 0 mm 2 mps 751 mmHg 36%
17:00 +29°C° 0 mm 2 mps 751 mmHg 37%
18:00 +28°C° 0 mm 1 mps 751 mmHg 41%
19:00 +26°C° 0 mm 1 mps 751 mmHg 46%
20:00 +24°C° 0 mm 1 mps 751 mmHg 51%
21:00 +23°C° 0 mm 1 mps 751 mmHg 53%
22:00 +22°C° 0 mm 1 mps 751 mmHg 55%
23:00 +22°C° 0 mm 1 mps 750 mmHg 58%

18 August, Tuesday

Time Temperature Precipitation Wind Pressure Humidity
00:00 +19°C° 0 mm 0 mps 750 mmHg 59%
01:00 +19°C° 0 mm 0 mps 750 mmHg 60%
02:00 +18°C° 0 mm 0 mps 750 mmHg 61%
03:00 +18°C° 0 mm 0 mps 750 mmHg 62%
04:00 +18°C° 0 mm 0 mps 749 mmHg 63%
05:00 +18°C° 0 mm 0 mps 749 mmHg 64%
06:00 +23°C° 0 mm 1 mps 749 mmHg 57%
07:00 +25°C° 0 mm 1 mps 749 mmHg 50%
08:00 +28°C° 0 mm 1 mps 749 mmHg 43%
09:00 +29°C° 0 mm 1 mps 749 mmHg 40%
10:00 +30°C° 0 mm 1 mps 749 mmHg 36%
11:00 +31°C° 0 mm 1 mps 749 mmHg 33%
12:00 +31°C° 0 mm 1 mps 748 mmHg 32%
13:00 +31°C° 0 mm 1 mps 748 mmHg 32%
14:00 +31°C° 0 mm 1 mps 747 mmHg 32%
15:00 +31°C° 0 mm 1 mps 747 mmHg 33%
16:00 +31°C° 0 mm 1 mps 747 mmHg 34%
17:00 +31°C° 0 mm 1 mps 747 mmHg 35%
18:00 +29°C° 0 mm 1 mps 747 mmHg 38%
19:00 +27°C° 0 mm 1 mps 747 mmHg 42%
20:00 +25°C° 0 mm 2 mps 747 mmHg 45%
21:00 +25°C° 0 mm 2 mps 746 mmHg 48%
22:00 +24°C° 0 mm 2 mps 746 mmHg 50%
23:00 +23°C° 0 mm 2 mps 746 mmHg 52%
Show more